{"data":{"norad_id":50199,"intl_designator":"2021-125AV","name":"STARLINK-3270","alt_names":[],"object_type":"PAYLOAD","status":"ACTIVE","operator":null,"country":"US","launch_date":"2021-12-18","launch_site_code":"AFWTR","launch_vehicle":null,"mission":null,"orbit_class":"UNKNOWN","rcs_meters":null,"size_class":null,"mass_kg":null,"dimensions":null,"purposes":["comms"],"wikipedia_slug":null,"has_3d_model":false,"image_url":null,"decayed_at":null,"tle_current":{"epoch":"2026-09-20T02:26:08.590848Z","epoch_age_seconds":79196,"freshness":"FRESH","line1":"1 50199U 21125AV  26263.10148832  .00000239  00000+0  17750-4 0  9998","line2":"2 50199  53.1594  75.4891 0001208  84.3446 275.7695 15.35399182266222","mean_motion":15.35399182,"eccentricity":0.0001208,"inclination_deg":53.1594,"raan_deg":75.4891,"arg_perigee_deg":84.3446,"mean_anomaly_deg":275.7695,"bstar":1.775e-5,"rev_number":26622,"period_min":93.786685370267,"perigee_km":458.90905642578,"apogee_km":460.56108631822,"semimajor_km":6837.872071372,"source":"CELESTRAK","updated_at":"2026-09-20T09:00:39.419994Z"}}}